Starlink 11550

operational
NORAD ID: 63052 Int'l Des: 2025-035 Owner: SPXS Country: US Constellation: starlink
LEOCIRCULAR

Starlink 11550について

説明を読み込み中...

リアルタイム位置

3D地球を読み込み中...

次回通過

高度履歴

Altitude vs Time

uPlot chart will show altitude changes over time

軌道要素

1 63052U 25035A 25257.43960758 .00217602 00000-0 16501-2 0 9997
2 63052 43.0000 357.5134 0001904 262.7869 97.2782 15.70914465 33505
Epoch: Sep 14, 2025 • Age: 32 hours

現在のステータス

高度 366.2 km
速度 7.69 km/s
衛星直下点 -41.87°S, 7.78°E
打ち上げ日 Feb 21, 2025
運用期間 0.5 years
タイプ internet

技術仕様

分類 Payload
質量 960.00 kg
乾燥質量 910.00 kg
総質量 960.00 kg
長さ 0.30 m
直径 4.10 m
スパン 29.00 m
形状 Box + pan
製造者 SPXS
バスタイプ Starlink V2MD
フェーズステータス In Orbit
所有者/国 SPXS/US

大規模コンステレーション

Loading constellations...